Osceola, IA

7:24 PM CST on February 24, 2017 (GMT -0600)
Osceola Municipal

Weather History for KI75 - January, 2013

Change the Weather History Date:

Saturday, January 5, 2013

  Actual Average (KCNC) Record (KCNC)
Temperature  
Mean Temperature 32 °F -  
Max Temperature 39 °F 30 °F 62 °F (2012)
Min Temperature 26 °F 10 °F -12 °F (1959)
Degree Days  
Heating Degree Days 32    
Moisture  
Dew Point 26 °F    
Average Humidity 80    
Maximum Humidity 86    
Minimum Humidity 71    
Precipitation  
Precipitation 0.00 in - - ()
Sea Level Pressure  
Sea Level Pressure 30.06 in    
Wind  
Wind Speed 11 mph (SW)    
Max Wind Speed 18 mph    
Max Gust Speed 26 mph    
Visibility 10 miles    
Events      
Averages and records for this station are not official NWS values.
T = Trace of Precipitation, MM = Missing Value Source: NWS Daily Summary

Daily Weather History Graph

Daily Weather History Graph

Search for Another Location

Airport or City:

Trip Planner

Search our weather history database for the weather conditions in past years. The results will help you decide how hot, cold, wet, or windy it might be!

Date:

Astronomy

Jan. 05, 2013 Rise Set
Actual Time 7:39 AM CST 5:00 PM CST
Civil Twilight 7:09 AM CST 5:31 PM CST
Nautical Twilight 6:34 AM CST 6:06 PM CST
Astronomical Twilight 6:01 AM CST 6:39 PM CST
Moon 12:45 AM CST (1/5) 11:52 AM CST (1/5)
Length of Visible Light 10h 22m
Length of Day
9h 21m
Last Quarter, 44% of the Moon is Illuminated
Jan 5
Last Quarter
Jan 11
New
Jan 18
First Quarter
Jan 26
Full
Feb 3
Last Quarter

Hourly Weather History & Observations

Time (CST) Temp. Windchill Dew Point Humidity Pressure Visibility Wind Dir Wind Speed Gust Speed Precip Events Conditions
12:15 AM 27.9 °F 19.8 °F 23.0 °F 82% 30.16 in 10.0 mi South 8.1 mph - N/A   Clear
12:35 AM 28.0 °F 20.0 °F 23.4 °F 83% 30.16 in 10.0 mi South 8.1 mph - N/A   Clear
12:55 AM 27.5 °F 20.2 °F 23.0 °F 83% 30.15 in 10.0 mi South 6.9 mph - N/A   Clear
1:15 AM 28.4 °F 21.2 °F 23.9 °F 83% 30.14 in 10.0 mi South 6.9 mph - N/A   Clear
1:35 AM 28.0 °F 20.8 °F 23.9 °F 84% 30.14 in 10.0 mi SSW 6.9 mph - N/A   Clear
1:55 AM 28.0 °F 20.8 °F 23.9 °F 84% 30.14 in 10.0 mi South 6.9 mph - N/A   Clear
2:15 AM 27.5 °F 20.2 °F 23.5 °F 85% 30.14 in 10.0 mi South 6.9 mph - N/A   Clear
2:35 AM 26.6 °F 18.2 °F 22.8 °F 86% 30.14 in 10.0 mi South 8.1 mph - N/A   Clear
2:55 AM 26.8 °F 18.5 °F 23.0 °F 86% 30.14 in 10.0 mi South 8.1 mph - N/A   Clear
3:15 AM 27.3 °F 18.4 °F 23.2 °F 84% 30.14 in 10.0 mi South 9.2 mph - N/A   Clear
3:35 AM 27.3 °F 18.4 °F 23.2 °F 84% 30.13 in 10.0 mi South 9.2 mph - N/A   Clear
3:55 AM 27.1 °F 17.5 °F 23.0 °F 84% 30.13 in 10.0 mi South 10.4 mph - N/A   Clear
4:15 AM 26.6 °F 16.2 °F 22.8 °F 86% 30.12 in 10.0 mi SSW 11.5 mph - N/A   Clear
4:35 AM 26.2 °F 17.1 °F 22.6 °F 86% 30.12 in 10.0 mi SSW 9.2 mph - N/A   Clear
4:55 AM 26.6 °F 16.2 °F 23.0 °F 86% 30.11 in 10.0 mi South 11.5 mph - N/A   Clear
5:15 AM 27.5 °F 18.6 °F 23.5 °F 85% 30.09 in 10.0 mi SSW 9.2 mph - N/A   Scattered Clouds
5:35 AM 28.9 °F 19.8 °F 24.4 °F 83% 30.09 in 10.0 mi SSW 10.4 mph - N/A   Overcast
5:55 AM 30.2 °F 20.8 °F 25.3 °F 82% 30.09 in 10.0 mi South 11.5 mph - N/A   Overcast
6:15 AM 30.2 °F 20.2 °F 24.8 °F 80% 30.10 in 10.0 mi South 12.7 mph - N/A   Scattered Clouds
6:35 AM 29.3 °F 20.2 °F 24.3 °F 81% 30.10 in 10.0 mi SSW 10.4 mph - N/A   Clear
6:55 AM 28.9 °F 19.2 °F 23.9 °F 81% 30.09 in 10.0 mi South 11.5 mph - N/A   Scattered Clouds
7:35 AM 27.3 °F 18.4 °F 23.0 °F 84% 30.09 in 10.0 mi South 9.2 mph - N/A   Clear
7:55 AM 27.5 °F 18.0 °F 23.0 °F 83% 30.09 in 10.0 mi SSE 10.4 mph - N/A   Clear
8:15 AM 28.0 °F 18.6 °F 23.5 °F 83% 30.09 in 10.0 mi South 10.4 mph - N/A   Clear
8:35 AM 28.9 °F 19.2 °F 24.1 °F 82% 30.09 in 10.0 mi SSW 11.5 mph - N/A   Clear
8:55 AM 30.2 °F 20.2 °F 25.3 °F 82% 30.09 in 10.0 mi SSW 12.7 mph - N/A   Clear
9:15 AM 31.6 °F 22.1 °F 26.6 °F 82% 30.09 in 10.0 mi South 12.7 mph - N/A   Scattered Clouds
9:55 AM 33.4 °F 23.5 °F 28.2 °F 81% 30.09 in 10.0 mi South 15.0 mph - N/A   Clear
10:15 AM 34.7 °F 25.5 °F 29.1 °F 80% 30.09 in 10.0 mi South 13.8 mph 20.7 mph N/A   Clear
11:15 AM 36.9 °F 26.8 °F 31.3 °F 80% 30.06 in 10.0 mi SSW 18.4 mph 23.0 mph N/A   Overcast
11:55 AM 37.2 °F 27.9 °F 32.0 °F 81% 30.02 in 10.0 mi SSW 16.1 mph - N/A   Overcast
12:15 PM 37.4 °F 27.8 °F 32.2 °F 81% 30.01 in 10.0 mi SSW 17.3 mph 23.0 mph N/A   Overcast
12:35 PM 37.4 °F 27.5 °F 32.2 °F 81% 30.00 in 10.0 mi SSW 18.4 mph 25.3 mph N/A   Overcast
12:55 PM 37.4 °F 28.2 °F 32.2 °F 81% 29.99 in 10.0 mi SSW 16.1 mph 24.2 mph N/A   Overcast
1:15 PM 37.4 °F 27.8 °F 32.0 °F 81% 29.98 in 10.0 mi SSW 17.3 mph 25.3 mph N/A   Overcast
1:35 PM 37.6 °F 27.7 °F 32.0 °F 80% 29.96 in 10.0 mi SSW 18.4 mph - N/A   Overcast
1:55 PM 37.8 °F 28.3 °F 32.0 °F 80% 29.96 in 10.0 mi SSW 17.3 mph - N/A   Overcast
2:15 PM 37.9 °F 30.0 °F 32.0 °F 79% 29.96 in 10.0 mi SSW 12.7 mph 20.7 mph N/A   Overcast
2:35 PM 38.1 °F 29.8 °F 32.0 °F 79% 29.95 in 10.0 mi SSW 13.8 mph 18.4 mph N/A   Overcast
2:55 PM 38.3 °F 30.1 °F 32.2 °F 79% 29.95 in 10.0 mi SSW 13.8 mph 19.6 mph N/A   Overcast
3:15 PM 38.5 °F 31.6 °F 32.4 °F 79% 29.96 in 10.0 mi SSW 10.4 mph - N/A   Overcast
3:35 PM 38.5 °F 30.3 °F 32.9 °F 80% 29.95 in 10.0 mi SSW 13.8 mph - N/A   Mostly Cloudy
3:55 PM 39.4 °F 32.7 °F 32.7 °F 77% 29.96 in 10.0 mi SW 10.4 mph - N/A   Mostly Cloudy
4:15 PM 39.6 °F 32.5 °F 31.6 °F 73% 29.96 in 10.0 mi SW 11.5 mph 17.3 mph N/A   Overcast
4:55 PM 38.7 °F 31.8 °F 32.0 °F 77% 29.97 in 10.0 mi SW 10.4 mph 16.1 mph N/A   Overcast
5:15 PM 37.8 °F 30.2 °F 31.5 °F 78% 29.96 in 10.0 mi WSW 11.5 mph 18.4 mph N/A   Scattered Clouds
5:35 PM 37.4 °F 28.5 °F 30.6 °F 76% 29.98 in 10.0 mi WSW 15.0 mph - N/A   Clear
5:55 PM 36.5 °F 28.2 °F 29.8 °F 77% 29.98 in 10.0 mi WSW 12.7 mph - N/A   Clear
6:15 PM 35.6 °F 25.5 °F 28.9 °F 77% 30.00 in 10.0 mi West 17.3 mph - N/A   Clear
6:35 PM 34.2 °F 24.8 °F 27.1 °F 75% 30.01 in 10.0 mi West 13.8 mph 20.7 mph N/A   Clear
6:55 PM 32.9 °F 23.2 °F 24.4 °F 71% 30.02 in 10.0 mi West 13.8 mph - N/A   Clear
7:15 PM 32.0 °F 21.2 °F 24.4 °F 74% 30.04 in 10.0 mi West 16.1 mph 20.7 mph N/A   Clear
7:35 PM 31.1 °F 21.4 °F 22.8 °F 71% 30.04 in 10.0 mi West 12.7 mph - N/A   Clear
7:55 PM 30.2 °F 21.9 °F 21.9 °F 71% 30.05 in 10.0 mi West 9.2 mph - N/A   Clear
8:15 PM 29.8 °F 20.9 °F 21.7 °F 72% 30.06 in 10.0 mi West 10.4 mph - N/A   Scattered Clouds
8:35 PM 29.8 °F 23.0 °F 22.1 °F 73% 30.05 in 10.0 mi West 6.9 mph - N/A   Mostly Cloudy
8:55 PM 30.2 °F 22.6 °F 23.0 °F 75% 30.06 in 10.0 mi West 8.1 mph - N/A   Overcast
9:15 PM 30.2 °F 23.4 °F 23.0 °F 75% 30.05 in 10.0 mi West 6.9 mph - N/A   Overcast
9:35 PM 30.2 °F 21.9 °F 23.0 °F 75% 30.05 in 10.0 mi West 9.2 mph - N/A   Overcast
9:55 PM 30.6 °F 22.4 °F 23.4 °F 75% 30.05 in 10.0 mi West 9.2 mph - N/A   Overcast
10:15 PM 30.6 °F 20.7 °F 23.4 °F 75% 30.05 in 10.0 mi West 12.7 mph 19.6 mph N/A   Overcast
10:35 PM 30.2 °F 18.9 °F 23.4 °F 76% 30.06 in 10.0 mi WNW 16.1 mph 19.6 mph N/A   Overcast
10:55 PM 29.7 °F 18.2 °F 22.8 °F 76% 30.06 in 10.0 mi WNW 16.1 mph 24.2 mph N/A   Overcast
11:15 PM 28.4 °F 15.8 °F 20.8 °F 73% 30.07 in 10.0 mi NW 18.4 mph 26.5 mph N/A   Overcast
11:35 PM 28.0 °F 15.7 °F 20.7 °F 74% 30.08 in 10.0 mi WNW 17.3 mph 23.0 mph N/A   Overcast
11:55 PM 27.3 °F 16.6 °F 21.7 °F 80% 30.09 in 10.0 mi WNW 12.7 mph - N/A   Overcast